User: anonymous   Login
Location: ????????
(60.4333°N, 46.4710°E)
Time: 11:00:13
(UTC+00:00)
Language:

Cosmos 1607 - Orbit

View from above orbital plane
View from above orbital plane
View from above satellite
View from above satellite

Ground track
Ground track

The orbit data is extracted from the following two-line orbital elements,

1 15378U 84112A   21063.61961432 -.00000081  00000-0  73102-5 0  9992
2 15378  64.9940  18.9613 0059616 267.5555  91.8679 13.83569518837870
Epoch (UTC): 04 March 2021 14:52:14
Eccentricity: 0.0059616
inclination: 64.9940°
perigee height: 907 km
apogee height: 995 km
right ascension of ascending node: 18.9613°
argument of perigee: 267.5555°
revolutions per day: 13.83569518
mean anomaly at epoch: 91.8679°
orbit number at epoch: 83787

The dashed part of the orbit path shows where the satellite is in the earth's shadow,  

DLR